Weather History for Ft Lauderdale, FL

Change the Weather History Date:

Wednesday, March 26, 2014

  Actual Average Record
Temperature  
Mean Temperature 64 °F 74 °F  
Max Temperature 71 °F 81 °F 90 °F (1935)
Min Temperature 56 °F 67 °F 45 °F (1947)
Degree Days  
Heating Degree Days 1 0  
Month to date heating degree days 1 7  
Since 1 July heating degree days 81 109  
Cooling Degree Days 0 9  
Month to date cooling degree days 226 209  
Year to date cooling degree days 614 565  
Growing Degree Days 12 (Base 50)    
Moisture  
Dew Point 50 °F    
Average Humidity 63    
Maximum Humidity 80    
Minimum Humidity 45    
Precipitation  
Precipitation 0.00 in 0.11 in 2.14 in (1958)
Month to date precipitation 2.27 2.74  
Year to date precipitation 7.78 9.33  
Snow  
Snow 0.00 in - - ()
Month to date snowfall 0.0  
Since 1 July snowfall 0.0  
Snow Depth 0.00 in    
Sea Level Pressure  
Sea Level Pressure 30.16 in    
Wind  
Wind Speed 11 mph (North)    
Max Wind Speed 20 mph    
Max Gust Speed 26 mph    
Visibility 10 miles    
Events      
T = Trace of Precipitation, MM = Missing Value Source: NWS Daily Summary

Daily Weather History Graph

Daily Weather History Graph

Search for Another Location

Airport:

Trip Planner

Search our weather history database for the weather conditions in past years. The results will help you decide how hot, cold, wet, or windy it might be!

Date:

Astronomy

Mar. 26, 2014 Rise Set
Actual Time 7:18 AM EDT 7:34 PM EDT
Civil Twilight 6:55 AM EDT 7:57 PM EDT
Nautical Twilight 6:28 AM EDT 8:24 PM EDT
Astronomical Twilight 6:01 AM EDT 8:51 PM EDT
Moon 4:01 AM EDT (3/26) 3:33 PM EDT (3/26)
Length of Visible Light 13h 02m
Length of Day
12h 16m
Waning Crescent, 22% of the Moon is Illuminated
Mar 26
Waning Crescent
Mar 30
New
Apr 7
First Quarter
Apr 15
Full
Apr 22
Last Quarter

Hourly Weather History & Observations

Time (EDT) Temp. Dew Point Humidity Pressure Visibility Wind Dir Wind Speed Gust Speed Precip Events Conditions
12:53 AM 63.0 °F 55.0 °F 75% 30.04 in 10.0 mi WNW 12.7 mph 19.6 mph N/A   Partly Cloudy
1:53 AM 62.1 °F 50.0 °F 65% 30.04 in 10.0 mi WNW 12.7 mph 17.3 mph N/A   Clear
2:53 AM 60.1 °F 50.0 °F 69% 30.04 in 10.0 mi WNW 8.1 mph - N/A   Clear
3:53 AM 57.9 °F 51.1 °F 78% 30.05 in 10.0 mi NW 9.2 mph - N/A   Clear
4:53 AM 59.0 °F 48.9 °F 69% 30.06 in 10.0 mi NNW 9.2 mph - N/A   Clear
5:53 AM 57.9 °F 39.9 °F 51% 30.08 in 10.0 mi NNW 16.1 mph 20.7 mph N/A   Mostly Cloudy
6:53 AM 57.0 °F 39.0 °F 51% 30.12 in 10.0 mi NNW 11.5 mph - N/A   Mostly Cloudy
7:53 AM 55.9 °F 39.9 °F 55% 30.14 in 10.0 mi North 9.2 mph - N/A   Partly Cloudy
8:53 AM 57.9 °F 42.1 °F 56% 30.17 in 10.0 mi North 16.1 mph 25.3 mph N/A   Mostly Cloudy
9:53 AM 60.1 °F 42.1 °F 51% 30.20 in 10.0 mi North 16.1 mph 26.5 mph N/A   Scattered Clouds
10:53 AM 63.0 °F 45.0 °F 52% 30.22 in 10.0 mi North 15.0 mph 21.9 mph N/A   Partly Cloudy
11:53 AM 66.0 °F 46.0 °F 48% 30.23 in 10.0 mi NNE 10.4 mph - N/A   Clear
12:53 PM 68.0 °F 46.9 °F 47% 30.22 in 10.0 mi NNE 10.4 mph - N/A   Partly Cloudy
1:53 PM 69.1 °F 52.0 °F 54% 30.19 in 10.0 mi NNE 15.0 mph 25.3 mph N/A   Partly Cloudy
2:53 PM 70.0 °F 54.0 °F 57% 30.19 in 10.0 mi NE 15.0 mph - N/A   Partly Cloudy
3:53 PM 69.1 °F 55.0 °F 61% 30.19 in 10.0 mi NNE 12.7 mph 23.0 mph N/A   Partly Cloudy
4:53 PM 70.0 °F 55.9 °F 61% 30.19 in 10.0 mi NNE 12.7 mph 18.4 mph N/A   Partly Cloudy
5:53 PM 69.1 °F 57.0 °F 65% 30.19 in 10.0 mi North 11.5 mph - N/A   Partly Cloudy
6:53 PM 68.0 °F 57.0 °F 68% 30.20 in 10.0 mi NNE 10.4 mph - N/A   Scattered Clouds
7:53 PM 64.9 °F 57.0 °F 75% 30.22 in 10.0 mi North 10.4 mph - N/A   Mostly Cloudy
8:53 PM 64.9 °F 55.9 °F 73% 30.23 in 10.0 mi North 8.1 mph - N/A   Mostly Cloudy
9:53 PM 63.0 °F 55.0 °F 75% 30.24 in 10.0 mi North 6.9 mph - N/A   Mostly Cloudy
10:53 PM 62.1 °F 55.0 °F 78% 30.25 in 10.0 mi North 6.9 mph - N/A   Scattered Clouds
11:53 PM 62.1 °F 55.0 °F 78% 30.25 in 10.0 mi North 3.5 mph - N/A   Mostly Cloudy